RH
63 67 69 72 72 74 76 78 85 88 89 89 87 87 86 81 80 82 81 81 77 73 70 64 62 64 66 69 71 71 69 62 54 54 59 60 60 61 60 59 59 57 57 57 55 54 52 53 52 51 48 46 46 46 46 45 45 42 38 36 37 37 40 44 46 47 47 46 46 46 47 47 49 50 52 53 51 53 52 52 52 51 51 51 52 53 54 56 56 54 52 52 51 52 52 54 58
66 69 71 76 77 81 81 80 89 91 89 90 88 86 83 80 78 79 78 77 70 62 62 57 59 64 63 65 65 66 71 68 59 55 55 56 60 61 58 57 56 55 55 54 53 51 51 51 49 50 47 45 45 44 43 42 40 36 34 34 35 36 39 41 41 41 41 41 40 40 42 43 46 49 49 49 49 54 56 55 53 50 50 51 54 53 53 55 56 55 53 52 52 53 53 57 61
68 72 72 79 83 85 86 88 93 93 91 90 87 84 80 79 80 79 75 71 64 57 57 55 59 61 57 56 61 65 67 65 58 52 54 57 58 57 57 55 53 52 51 49 49 49 48 46 46 46 44 44 43 42 40 37 33 31 31 32 33 35 37 39 39 41 40 40 40 39 41 41 44 47 46 47 52 56 56 53 50 49 50 52 54 55 54 53 54 56 54 53 54 55 55 58 59
69 74 77 82 85 87 91 94 96 95 94 89 85 84 80 79 80 78 74 68 63 59 57 56 58 57 51 51 56 59 58 58 57 51 52 56 55 54 55 54 51 50 49 47 47 46 45 43 44 42 41 42 40 37 34 30 28 28 29 32 35 38 40 41 43 45 44 44 44 44 45 46 46 47 47 51 55 54 52 50 50 50 52 53 53 55 56 54 55 55 54 55 55 55 56 56 56
70 74 78 82 86 90 94 95 96 95 92 88 86 84 82 79 76 77 72 65 62 58 56 55 53 49 46 45 46 49 51 54 57 53 52 55 55 53 53 54 51 48 48 47 46 45 42 42 41 39 38 36 33 29 27 27 26 28 32 36 42 44 45 46 47 48 48 49 49 48 49 49 47 47 50 54 55 52 50 49 50 51 51 53 53 55 57 56 56 55 55 55 54 54 55 55 53
66 72 78 81 86 89 93 95 95 94 89 86 88 85 81 77 76 77 70 64 62 58 56 54 47 44 45 45 45 45 48 51 55 54 52 55 56 53 53 54 51 47 46 46 44 42 41 39 37 35 33 30 27 25 26 27 28 33 39 42 45 47 48 48 50 51 51 52 52 49 49 49 48 50 54 55 54 52 51 50 51 53 53 53 54 55 56 56 56 56 55 54 52 51 52 53 53
64 73 81 84 88 89 92 94 93 93 88 85 87 84 79 78 79 77 70 66 65 58 56 53 43 41 45 47 47 47 50 53 54 54 52 55 55 54 54 52 50 46 43 42 40 39 38 36 33 32 30 27 26 27 27 28 32 40 46 47 48 51 52 53 53 53 54 54 52 50 51 52 52 54 57 55 51 50 51 52 53 56 57 56 57 59 58 55 55 56 56 55 52 51 51 51 53
66 76 81 87 91 91 92 92 91 92 89 84 85 84 80 82 82 80 75 67 63 58 55 53 42 39 46 50 52 52 52 53 53 53 53 54 53 53 54 52 48 44 42 40 38 36 34 32 31 30 27 26 26 27 27 30 39 46 50 51 52 54 55 55 54 55 55 55 53 52 54 54 54 55 56 54 49 48 51 54 56 59 61 61 62 63 62 58 57 57 57 56 54 51 49 48 52
68 78 82 87 92 92 92 92 92 90 89 85 86 85 81 83 82 82 80 67 60 59 56 51 42 40 47 52 54 53 51 52 53 53 55 56 56 54 53 53 47 43 41 39 37 34 31 30 28 27 26 25 26 26 30 38 45 48 51 53 53 55 55 54 53 56 56 56 54 54 56 55 54 54 54 52 49 49 53 56 58 61 63 64 64 64 63 61 60 59 58 57 54 50 47 47 49
68 77 83 88 92 94 94 93 93 90 88 88 89 83 81 85 82 84 81 68 62 60 57 49 42 42 47 53 55 52 51 52 52 56 59 62 61 56 54 53 47 43 41 38 35 32 30 28 27 25 24 24 26 30 38 45 48 50 52 53 53 54 55 54 53 55 56 56 55 56 59 58 56 53 54 53 51 52 53 54 56 60 63 65 65 65 64 62 61 60 58 55 53 49 48 47 48
70 80 85 89 92 95 94 92 92 90 88 90 90 83 84 86 82 83 79 71 66 61 58 48 41 44 47 53 54 52 53 53 52 56 61 62 61 56 54 49 45 43 40 37 36 33 29 27 26 24 24 26 31 37 44 47 49 52 53 53 53 53 54 53 53 55 56 55 56 56 58 59 57 54 55 55 54 53 51 52 57 60 63 65 65 66 64 61 61 59 56 53 51 49 48 46 46
74 85 90 90 91 93 93 91 91 91 90 91 90 86 86 87 83 84 80 75 68 60 58 45 39 44 46 52 53 52 53 52 52 55 58 60 59 57 52 46 43 42 38 38 36 32 28 26 24 23 25 30 38 44 46 48 51 52 51 51 52 52 53 53 54 56 56 55 56 56 55 55 54 54 57 57 54 51 49 53 59 62 62 63 64 64 62 60 60 57 53 50 48 47 46 47 46
75 86 90 89 90 92 93 93 93 94 94 92 89 85 85 85 82 81 79 77 69 61 56 43 38 43 46 53 53 51 51 53 53 54 58 60 59 57 50 44 42 40 38 37 33 29 27 25 23 23 28 36 44 48 49 50 51 51 50 49 51 51 52 54 56 57 57 56 55 55 54 53 52 54 56 55 53 50 49 55 60 62 62 61 62 61 61 60 59 56 50 47 46 44 44 45 47
73 81 87 89 90 92 93 94 95 96 95 92 88 84 85 85 81 78 76 77 72 63 56 44 40 41 44 50 54 54 52 53 53 53 58 60 60 55 48 44 42 39 36 33 30 28 27 25 23 24 32 40 47 49 50 50 49 49 48 48 50 50 52 55 56 56 56 55 54 53 52 52 53 54 55 55 54 52 51 54 59 63 61 60 61 59 60 59 57 54 50 48 47 44 43 44 47
71 78 85 88 91 93 93 94 95 95 94 91 87 85 86 84 80 77 76 77 73 63 57 49 41 39 39 42 49 52 49 51 53 53 58 60 60 56 50 44 41 38 34 32 29 27 27 25 24 28 35 43 47 49 50 50 49 49 49 49 50 52 53 55 56 56 55 54 54 52 53 52 53 55 55 55 57 57 56 54 56 61 61 60 60 59 59 59 57 54 51 49 47 44 43 45 48
71 78 86 90 90 91 90 92 94 93 91 89 88 88 87 81 78 77 76 75 70 62 58 51 41 36 37 39 42 46 46 48 50 53 57 58 59 57 52 45 40 37 34 33 32 29 27 26 29 35 40 45 47 48 50 52 50 50 51 51 53 55 55 55 56 58 56 54 53 53 54 54 54 55 54 54 58 60 59 55 54 56 60 60 59 59 59 59 57 54 52 50 46 45 46 47 49
69 77 87 90 89 89 90 90 91 88 86 88 88 85 83 80 77 77 76 72 69 66 59 52 45 36 36 40 40 41 44 46 48 51 54 56 58 57 53 48 44 41 39 38 37 33 31 33 39 43 45 46 48 48 51 53 52 52 52 52 53 55 54 54 56 57 55 54 54 54 54 53 54 55 54 54 57 60 61 59 55 55 57 60 60 59 59 58 56 54 51 48 45 45 45 46 48
68 79 86 87 86 86 87 87 87 82 81 86 85 81 79 78 78 79 77 73 70 68 61 56 49 40 38 40 39 38 41 44 46 49 51 54 56 54 52 50 48 47 48 47 44 39 38 42 47 48 49 49 50 49 50 54 54 54 52 51 53 54 53 53 54 54 53 54 56 55 53 53 53 54 53 53 55 59 62 62 60 56 54 57 59 58 57 56 55 54 51 47 45 45 45 46 48
69 77 84 85 84 82 83 86 85 80 79 81 83 80 77 77 78 80 80 77 75 72 66 59 50 45 41 39 39 37 39 44 45 47 49 50 52 52 51 51 52 53 54 55 52 48 47 50 51 51 52 53 52 51 52 54 53 53 52 52 52 52 53 54 55 55 55 57 58 56 53 51 51 53 52 52 54 57 59 61 61 56 52 52 54 54 54 54 54 53 51 50 49 49 49 49 50
69 74 83 85 81 79 81 84 83 80 79 79 81 79 77 78 76 76 78 79 79 73 65 57 51 46 40 37 37 35 38 42 44 46 48 47 50 52 52 53 54 55 57 58 57 54 53 53 52 53 55 55 53 51 53 54 53 52 51 53 53 52 53 55 55 55 55 56 56 54 53 51 51 53 52 52 53 55 56 57 58 56 52 50 50 50 50 51 51 51 51 52 52 50 50 50 51
67 72 80 80 78 80 82 83 82 80 79 79 79 77 79 81 75 74 76 79 80 71 61 55 49 41 36 36 35 34 36 39 42 45 46 46 49 52 54 54 54 56 58 57 57 55 52 53 53 55 57 55 54 53 53 52 51 52 52 53 54 53 55 56 57 56 54 55 55 53 51 50 50 51 50 49 51 52 53 52 51 51 50 49 49 48 47 47 47 48 50 51 51 50 50 51 52
66 70 72 72 74 78 81 82 82 80 80 80 78 78 81 77 74 76 77 79 77 69 62 58 50 38 32 34 34 36 37 37 40 41 42 44 45 50 54 53 53 57 58 56 55 54 51 51 53 56 57 55 53 53 53 49 48 51 52 53 53 53 56 58 57 55 55 55 55 53 51 50 48 48 48 48 50 51 53 51 47 46 48 49 50 50 49 47 46 47 48 49 49 49 49 50 51
67 72 71 72 72 72 76 81 83 80 80 81 78 78 78 73 74 77 77 78 74 69 64 59 52 38 29 32 35 39 40 38 39 39 40 42 43 48 53 54 54 56 57 54 54 55 53 53 54 55 56 54 52 52 51 48 47 50 52 53 53 54 56 59 58 55 54 55 54 51 50 49 47 47 47 48 49 50 51 51 48 47 50 53 54 52 51 50 50 48 47 47 48 48 49 50 52
65 74 75 75 73 69 72 77 82 82 80 80 79 79 77 73 75 77 78 77 72 73 68 58 51 38 29 32 36 39 40 39 38 39 40 41 43 47 52 55 54 54 55 54 56 57 56 56 55 54 55 54 53 53 51 48 48 51 52 52 53 55 56 59 59 56 53 53 51 48 47 46 46 46 46 46 46 47 48 49 50 50 52 55 54 53 52 52 52 51 50 49 47 48 49 51 51
65 69 72 74 71 68 69 73 80 83 81 78 79 81 78 76 77 77 79 77 74 77 70 56 48 38 31 32 36 39 39 40 39 38 40 40 42 45 49 51 51 54 54 54 56 58 57 57 55 52 53 55 53 53 51 49 50 52 53 53 56 58 59 59 60 57 54 52 49 47 46 45 44 44 44 46 46 46 47 47 48 49 50 51 50 50 51 52 52 51 50 49 46 45 47 47 46
65 67 71 74 72 70 68 73 79 83 83 79 79 83 81 79 78 77 78 75 73 76 69 52 42 38 33 31 37 40 39 41 39 38 39 39 42 43 46 49 50 52 53 53 54 55 56 56 54 54 56 54 53 53 49 49 52 54 55 58 59 59 60 60 59 58 56 52 47 46 47 45 44 45 45 45 45 46 47 46 44 45 45 44 44 45 47 48 48 47 47 48 47 45 44 44 43
64 68 71 74 72 71 70 75 81 83 84 79 78 84 83 80 78 77 76 72 70 74 65 48 40 37 36 34 36 40 40 39 38 38 40 41 43 43 43 46 49 51 51 52 53 53 53 53 55 57 58 57 54 52 47 46 52 57 60 60 59 57 57 57 56 56 56 51 47 45 46 46 44 45 47 46 44 47 48 46 43 43 41 40 41 42 43 45 45 45 44 46 48 47 47 46 44
62 68 73 75 72 74 74 76 82 84 85 83 81 83 83 81 81 77 73 68 67 72 64 49 41 37 35 35 35 39 40 39 41 40 40 42 42 41 42 44 47 50 50 51 53 51 50 52 54 55 58 59 56 51 47 46 51 57 61 62 60 57 54 56 56 54 54 52 49 47 46 45 44 45 46 45 47 49 51 48 45 44 42 41 40 40 42 44 45 45 45 45 46 47 47 45 43
62 69 76 77 76 80 79 77 82 83 84 84 81 83 85 85 83 78 72 65 63 68 64 52 45 41 40 38 37 43 40 41 47 43 41 42 40 40 40 42 46 50 50 51 52 51 51 51 51 53 55 58 57 53 48 47 51 57 62 64 62 59 58 59 57 53 53 53 52 49 47 45 45 45 45 45 48 50 51 49 46 44 44 41 39 39 41 42 43 44 44 44 44 44 42 41 39
62 68 74 78 81 86 82 79 81 81 83 82 80 84 89 88 84 79 73 66 62 64 62 53 46 45 45 41 42 47 42 42 46 44 46 44 39 37 36 39 46 48 49 50 51 52 53 51 50 52 55 58 56 53 48 50 55 59 64 66 63 61 60 59 55 53 54 54 53 52 49 47 46 45 45 46 47 47 49 49 46 43 42 40 38 38 39 41 41 42 43 42 41 41 41 40 39
61 66 72 77 84 86 80 78 79 82 86 82 81 86 89 88 85 82 76 70 64 61 60 53 46 46 46 41 41 46 43 43 43 42 46 44 38 36 33 36 43 46 47 48 49 50 50 50 47 49 54 55 54 51 50 53 55 59 65 66 64 63 60 57 53 52 54 53 53 53 51 49 47 46 45 45 44 45 46 46 45 42 39 38 37 37 38 38 39 41 43 43 42 41 42 42 40
61 67 71 73 78 80 77 77 76 81 86 81 82 86 88 88 86 83 79 74 67 61 59 54 46 46 46 41 40 45 43 41 43 42 45 43 38 35 31 33 40 44 46 47 48 48 47 46 44 47 53 53 51 51 53 55 56 60 66 65 63 63 61 57 53 52 52 52 53 51 50 48 47 46 44 44 43 43 42 42 43 42 41 41 38 36 36 37 38 40 43 44 43 42 43 43 43
60 66 68 69 74 77 76 77 77 80 83 80 80 84 87 88 86 84 81 77 69 63 60 55 48 45 45 44 43 44 41 38 43 46 44 40 37 36 32 31 36 40 44 47 48 48 47 44 42 45 51 51 51 51 53 56 55 59 68 66 62 61 61 58 54 54 52 50 50 48 48 47 46 45 43 43 42 42 41 41 41 41 43 44 41 39 38 37 38 39 42 42 40 39 42 44 45
56 59 61 65 70 73 74 77 79 80 83 81 77 79 84 86 84 84 83 79 72 66 62 57 52 47 44 45 47 45 40 38 44 46 42 39 39 40 35 29 32 36 41 46 48 49 48 46 42 43 48 49 49 52 54 58 56 58 66 65 59 61 63 59 53 53 49 48 47 45 47 47 47 46 44 43 41 41 42 42 41 40 42 43 43 44 43 40 39 38 39 38 38 38 39 42 44
49 52 54 63 69 70 72 74 78 79 81 81 76 78 84 86 85 85 84 80 75 70 66 63 59 54 45 44 48 45 40 41 45 43 37 40 44 44 39 30 30 33 37 43 47 50 50 47 44 43 46 46 47 51 54 58 57 59 64 62 58 61 63 56 51 51 46 44 46 44 45 46 49 50 45 43 41 41 41 42 43 42 42 43 43 46 45 43 42 40 39 39 39 40 40 40 41
50 49 51 60 65 69 71 70 75 77 78 79 76 79 84 86 87 86 85 82 79 73 67 68 66 60 49 43 48 46 43 44 43 39 33 38 44 42 39 31 29 32 34 39 44 48 49 47 46 43 43 42 42 47 52 56 58 61 64 62 59 59 60 55 49 49 45 43 45 43 43 44 47 49 47 43 42 40 40 41 44 44 43 42 42 44 43 43 43 42 43 44 43 42 41 40 39
50 50 51 58 58 66 70 67 70 73 78 82 78 81 84 85 86 87 87 86 83 77 70 70 69 66 54 45 49 46 44 46 42 36 32 38 43 40 37 31 30 32 33 36 40 44 46 46 47 43 39 38 36 41 48 53 58 61 62 60 58 57 58 55 48 47 45 43 43 42 42 42 43 46 46 42 40 39 39 40 43 44 44 43 43 41 41 43 44 44 47 47 44 42 41 39 36
47 48 50 56 55 61 66 64 67 72 81 86 81 82 84 84 87 88 90 89 87 82 76 72 70 71 61 48 50 47 43 47 43 35 34 41 43 40 37 31 29 32 33 36 38 40 42 42 44 40 36 36 34 37 43 50 56 58 58 58 55 55 57 55 49 47 45 43 42 42 42 42 42 43 44 41 39 38 38 40 42 42 42 43 42 39 38 41 42 43 45 46 44 41 38 36 34
44 45 50 58 56 60 67 65 68 74 80 84 83 85 83 83 89 91 90 90 89 85 79 74 72 75 67 52 49 46 42 46 42 37 38 42 41 39 38 31 28 31 33 36 36 38 39 39 40 37 35 35 33 36 40 47 55 57 58 57 55 55 57 55 48 46 46 43 42 41 41 44 44 43 42 40 39 38 37 39 42 41 40 39 38 37 37 37 38 40 42 45 45 41 38 36 34
43 45 50 58 55 58 69 71 72 74 75 81 86 88 86 85 89 90 91 92 92 88 81 76 75 77 71 59 55 49 43 45 43 39 40 42 40 38 37 31 29 31 33 35 35 36 38 38 37 35 35 35 32 35 38 43 52 58 59 58 56 57 59 56 48 44 46 43 41 40 40 43 45 43 42 41 39 38 38 39 40 40 38 36 35 34 36 38 40 41 41 42 43 41 39 38 36
42 46 49 55 53 56 64 69 73 73 76 82 83 85 88 86 88 89 89 90 92 91 87 83 81 79 72 65 63 54 44 44 44 40 40 42 39 36 34 30 29 31 33 35 35 36 36 36 35 33 35 34 31 34 38 40 48 57 60 58 56 57 57 56 52 46 44 43 41 41 39 41 44 44 43 41 39 38 38 38 38 37 35 35 35 35 37 39 41 43 41 40 42 43 42 41 38
39 45 46 49 52 56 61 64 68 74 82 82 76 84 89 83 86 91 88 88 89 90 92 89 87 83 75 71 70 61 48 45 45 42 42 45 40 35 33 29 30 32 33 35 35 35 35 35 34 32 34 33 30 34 37 37 43 53 59 58 56 55 55 54 52 48 45 42 41 42 41 41 43 44 44 43 40 38 37 36 35 34 33 35 35 36 38 39 39 41 41 41 42 43 43 42 41
36 42 46 50 52 56 59 61 65 71 78 76 69 80 90 85 83 87 87 89 88 86 89 90 89 86 80 77 74 67 54 46 46 45 44 46 41 34 31 29 30 32 33 35 35 35 34 34 33 31 32 31 29 33 35 34 37 45 54 57 54 53 53 51 51 50 47 42 40 42 42 41 42 43 44 43 40 38 36 35 34 33 34 35 34 34 37 39 40 42 42 41 41 40 41 41 39
31 38 45 50 52 55 57 59 63 64 67 73 69 70 85 90 86 86 87 91 90 87 88 89 89 85 82 79 74 69 60 50 48 46 44 46 42 34 32 30 31 33 34 35 36 36 34 32 31 30 31 30 28 31 32 31 33 38 48 54 52 50 50 50 51 52 51 46 41 41 42 41 42 42 41 42 41 39 37 36 35 36 36 36 34 34 36 37 41 44 42 40 39 39 40 38 36
28 36 44 47 51 56 57 56 60 60 63 75 72 65 81 93 88 87 88 89 92 90 88 90 89 86 84 80 74 70 66 57 50 46 44 47 44 38 34 32 31 33 34 35 36 37 36 33 30 29 30 30 28 28 28 28 30 33 41 48 47 45 47 50 51 54 55 51 44 41 42 43 42 40 40 41 41 40 38 37 37 37 38 37 36 36 36 36 40 41 40 38 37 37 38 36 36
27 34 41 45 49 53 55 56 58 59 63 71 69 65 80 93 91 89 89 89 90 88 85 86 87 88 85 82 78 73 70 63 54 48 46 47 47 42 37 34 31 31 33 34 35 35 35 34 30 29 29 29 28 27 25 25 27 30 35 40 41 39 43 48 50 52 55 52 45 40 41 45 42 38 38 40 39 40 41 40 39 38 37 38 39 40 39 37 37 36 36 35 34 35 35 34 36
30 36 39 43 47 48 52 53 50 55 60 60 63 64 71 87 93 89 86 84 85 85 85 84 84 87 87 85 83 77 72 68 61 54 51 48 48 45 40 36 31 29 31 32 33 33 34 34 30 29 29 27 28 27 23 24 24 25 30 34 37 37 40 45 47 49 52 50 47 44 41 42 40 34 35 37 37 38 41 41 41 39 37 38 40 42 41 38 35 33 32 31 31 32 32 34 37
32 38 39 43 48 48 52 53 50 55 57 53 59 62 65 81 88 85 82 78 78 82 82 83 86 89 89 87 83 78 74 72 66 61 58 52 50 49 43 39 33 29 30 31 32 33 33 34 31 29 29 28 28 27 24 24 24 24 26 29 33 38 39 41 45 47 48 47 47 48 44 39 37 34 31 33 34 35 38 40 41 40 39 40 42 42 41 37 33 32 31 29 29 29 30 32 36
29 37 39 45 51 51 53 55 54 55 53 53 59 61 69 82 82 78 77 75 76 79 79 83 87 87 89 87 83 82 78 74 69 64 61 56 54 53 47 42 35 29 30 31 33 34 33 34 32 28 29 28 27 28 25 24 24 24 25 26 30 37 39 39 40 43 45 45 46 47 45 41 40 38 33 31 31 32 34 37 39 40 40 41 42 41 38 35 32 30 29 28 28 28 28 30 33
28 35 39 47 52 55 56 53 54 53 51 54 57 60 76 86 80 76 75 72 75 78 80 85 85 85 87 84 82 84 82 77 72 66 61 56 56 56 52 48 41 32 31 32 33 34 34 36 34 28 27 28 27 28 26 24 24 24 24 24 27 34 39 38 36 38 40 42 44 44 43 43 44 43 38 33 32 33 33 35 37 39 40 38 40 41 39 38 35 30 29 28 28 28 28 28 31
28 33 39 46 49 52 53 48 47 48 50 57 59 65 79 84 79 79 77 75 76 78 81 84 85 86 87 85 81 81 81 78 74 71 65 60 58 58 56 56 50 38 33 33 33 34 35 36 36 31 27 27 26 26 27 25 24 24 24 23 25 29 34 35 34 35 35 36 39 41 42 43 45 45 43 39 38 37 37 38 39 38 37 34 37 41 41 42 39 33 30 28 28 29 28 28 29
32 35 37 42 44 45 45 43 39 39 52 66 68 72 79 76 76 79 79 79 78 78 81 83 84 85 85 86 83 79 78 75 73 75 73 69 67 63 61 63 59 47 37 34 33 33 34 35 37 35 29 26 26 25 26 26 25 25 25 24 25 26 29 32 32 33 33 32 35 38 41 43 44 46 46 45 46 43 39 39 39 38 37 34 35 38 39 40 39 37 33 29 28 29 28 28 28
32 38 38 35 39 41 40 43 37 37 58 74 72 73 76 74 78 81 80 82 81 78 82 83 83 84 84 85 84 82 81 78 75 75 76 77 73 67 65 66 64 56 44 38 35 33 34 35 36 37 33 28 25 24 24 26 25 25 25 24 25 25 26 28 29 30 32 32 33 36 40 44 44 45 47 47 49 47 42 38 35 36 36 35 35 35 35 35 36 36 33 30 29 29 28 28 28
29 37 38 32 36 39 40 42 36 38 61 76 74 73 75 77 83 84 82 86 86 81 81 83 83 82 84 86 84 81 81 82 80 76 77 79 77 72 68 65 64 59 50 45 41 36 35 35 36 36 35 30 26 24 24 24 24 24 24 24 24 24 25 26 27 28 30 32 34 36 40 44 45 45 45 46 48 47 44 39 35 33 33 32 33 34 34 34 34 34 32 31 31 32 32 29 27
29 34 32 31 36 38 38 38 33 42 65 79 82 81 78 80 81 80 83 88 88 83 80 82 82 82 84 86 87 85 84 84 81 78 79 81 81 78 71 65 67 66 61 56 51 45 41 39 38 37 36 34 29 26 24 23 24 23 23 23 23 23 23 23 25 27 29 31 32 36 39 42 44 45 44 44 44 43 42 39 35 32 30 29 30 31 31 33 35 35 33 33 34 36 37 34 29
27 27 27 29 33 34 35 33 29 46 69 78 83 86 85 84 81 78 80 82 81 79 78 79 82 83 83 83 86 87 86 85 82 82 86 83 80 79 72 69 74 74 72 69 62 56 50 46 44 41 39 37 32 29 26 24 23 23 23 23 23 22 22 22 23 24 27 30 32 34 37 38 40 41 42 42 42 39 35 34 32 30 29 29 29 29 28 29 33 34 33 34 37 37 38 36 32
27 26 25 25 27 28 30 29 26 40 64 72 77 86 88 82 80 79 78 76 74 72 73 75 79 81 81 82 84 85 85 86 84 83 87 84 78 76 74 76 80 79 76 74 69 63 58 54 51 50 49 45 38 35 33 30 26 23 23 23 22 22 22 21 21 22 23 27 31 34 35 36 36 38 40 41 42 40 34 30 28 27 27 27 28 28 27 27 29 30 30 32 34 36 38 38 34
28 28 26 23 24 26 28 31 30 36 55 63 68 84 90 81 78 80 76 72 72 73 72 72 74 78 80 81 82 81 80 83 83 80 81 82 78 75 78 80 80 77 75 75 74 72 67 64 62 62 64 62 55 50 48 45 39 29 23 23 23 22 22 22 22 24 24 25 29 32 34 34 35 34 36 38 39 38 35 30 27 27 26 26 26 26 27 27 27 28 28 29 31 34 38 38 36